Regional Weather Roundup
Issued by NWS

Home | Current Version | Previous Version | Graphics & Text | Print | Product List | Glossary On
Versions: 1 2 3 4 5 6 7 8 9 10 11 12 13 14 15 16 17 18 19 20 21 22 23 24 25 26 27 28 29 30 31 32 33 34 35 36 37 38 39 40 41 42 43 44 45 46 47 48 49 50
000
ASUS43 KMPX 251201
RWRMN
WEATHER ROUNDUP FOR MINNESOTA
NATIONAL WEATHER SERVICE TWIN CITIES/CHANHASSEN MN
700 AM CDT WED MAY 25 2016


NOTE: "FAIR" INDICATES FEW OR NO CLOUDS BELOW 12,000 FEET WITH NO
SIGNIFICANT WEATHER AND/OR OBSTRUCTIONS TO VISIBILITY. N/A MEANS
CURRENT SKY AND/OR WEATHER CONDITIONS ARE NOT AVAILABLE.

MNZ060>063-068>070-251300-
   Twin Cities Metro

CITY           SKY/WX    TMP DP  RH WIND       PRES   REMARKS
TWIN CITIES    CLOUDY    68  57  68 SE10      29.89R
6HR MIN TEMP:  67; 6HR MAX TEMP:  70;

ST PAUL        CLOUDY    67  57  70 SE10      29.90R
CRYSTAL        CLOUDY    67  55  65 SE6       29.88R
EDEN PRAIRIE   CLOUDY    67  58  72 E7        29.88R
6HR MIN TEMP:  65; 6HR MAX TEMP:  70;

SOUTH ST PAUL  PTSUNNY   66  56  71 SE5       29.90R
LAKE ELMO      FAIR      64  55  72 E5        29.91R
$$
MNZ001>005-007-008-013>017-022>024-027-028-251300-
   Northwest Minnesota

CITY           SKY/WX    TMP DP  RH WIND       PRES   REMARKS
BEMIDJI        CLOUDY    56  55  95 E10       29.91F
HALLOCK        CLOUDY    59  54  82 E9        29.86S
ROSEAU         CLOUDY    54  48  82 NE3       29.90F
WARROAD        PTSUNNY   57  54  88 E7        29.93F
THIEF RVR FALL PTSUNNY   61  50  67 E9        29.88F
CROOKSTON      CLOUDY    61  54  77 E12       29.84F
FOSSTON        CLOUDY    57  52  82 E7        29.86F
DETROIT LAKES  CLOUDY    61  54  77 SE9       29.88R
MOORHEAD       CLOUDY    64  52  63 E10G16    29.81S
PARK RAPIDS    CLOUDY    59  55  87 E9        29.90S
MAHNOMEN       FAIR      63  51  66 SE12      29.84F
$$
MNZ006-009>011-018-025>026-251300-
   North Central Minnesota

CITY           SKY/WX    TMP DP  RH WIND       PRES   REMARKS
BAUDETTE       MOSUNNY   54  52  93 SE5       29.93F
FLAG ISLAND    CLOUDY    57  54  88 E5        29.94F
INTL FALLS     FOG       53  53 100 E6        29.97F VSB<1/4
6HR MIN TEMP:  44; 6HR MAX TEMP:  53;

WASKISH        CLOUDY    54  54 100 E7        29.94S FOG
BIG FORK       CLOUDY    57  54  88 E5        29.96F
LONGVILLE      CLOUDY    57  55  94 E3        29.93F
CRANE LAKE     CLOUDY    54  52  94 SE3       30.02S
ORR            CLOUDY    54  50  87 SE6       29.98S
COOK           CLOUDY    54  52  94 E3        30.00F
WALKER         CLOUDY    57  55  94 E6        29.91F
$$
MNZ012-019>021-037-251300-
   Northeast Minnesota

CITY           SKY/WX    TMP DP  RH WIND       PRES   REMARKS
DULUTH         DRZL/FOG  50  49  96 E10       30.00S VSB 1/4
6HR MIN TEMP:  49; 6HR MAX TEMP:  51; 6HR PCP: TRACE;

ELY            CLOUDY    52  48  87 SE7       30.03S
HIBBING        CLOUDY    53  52  96 E7        29.99S
EVELETH        CLOUDY    52  50  93 E8        30.01R
DULUTH HARBOR  FOG       46  45  93 E18       30.03R VSB 1/2
TWO HARBORS    HAZE      54  48  82 E8        30.01R VSB 1
SILVER BAY     FOG       50  48  93 NE6       30.02S VSB 1/2
GRAND MARAIS     N/A     43  41  93 E10       30.07F
G MARAIS ARPRT FOG       48  46  93 NE6       30.07S VSB 1/2
$$
MNZ029>031-032-039>041-046>048-054>057-064-251300-
   West Central Minnesota

CITY           SKY/WX    TMP DP  RH WIND       PRES   REMARKS
FERGUS FALLS   CLOUDY    64  54  68 E12       29.81R
WHEATON        CLOUDY    64  59  82 SE12      29.82S
MORRIS         CLOUDY    64  57  77 E9        29.82R
ALEXANDRIA     CLOUDY    60  54  80 E12       29.87R
ELBOW LAKE     FAIR      63  56  79 SE13      29.84R
WADENA         CLOUDY    55  54  94 E7        29.88S
GLENWOOD       CLOUDY    61  55  82 E10       29.86S
APPLETON       CLOUDY    64  57  77 SE8       29.82R
ORTONVILLE     CLOUDY    64  57  77 SE7       29.80F
MADISON        CLOUDY    66  57  72 SE12      29.82R
WILLMAR        FAIR      64  59  82 E9        29.86R
$$
MNZ033>034-036-042>043-049>051-058-059-251300-
   Central Minnesota

CITY           SKY/WX    TMP DP  RH WIND       PRES   REMARKS
ST CLOUD       CLOUDY    59  56  89 E8        29.89R
6HR MIN TEMP:  57; 6HR MAX TEMP:  64;

SAUK CENTRE    FAIR      58  55  90 E10       29.88R
PAYNESVILLE    CLOUDY    62  57  81 E6        29.88R
AITKIN         CLOUDY    55  52  88 E7        29.93R FOG
PINE RIVER     CLOUDY    55  55 100 E9        29.96S
BRAINERD       CLOUDY    56  55  97 VRB6      29.92S
STAPLES        CLOUDY    55  55 100 E7        29.90R
LONG PRAIRIE   FAIR      55  54  94 E7        29.89R
LITTLE FALLS   CLOUDY    55  54  94 CALM      29.90R
LITCHFIELD     CLOUDY    64  61  88 E6        29.87R
BUFFALO        CLOUDY    63  56  78 E6        29.89R
MAPLE LAKE     CLOUDY    63  59  86 E5        29.90R
HUTCHINSON     CLOUDY    64  60  85 E9        29.87R
$$
MNZ037-044-045-052-053-251300-
   East Central Minnesota

CITY           SKY/WX    TMP DP  RH WIND       PRES   REMARKS
PRINCETON      CLOUDY    61  57  88 NE8       29.91R
MORA           FOG       54  52  94 NE5       29.96R VSB 1
CAMBRIDGE      CLOUDY    61  54  77 NE3       29.90S HAZE
RUSH CITY      CLOUDY    58  57  97 NE6       29.92F FOG
MOOSE LAKE     FOG       46  46 100 E7        29.96S VSB 1
HINCKLEY       CLOUDY    52  52 100 NE8       29.95R FOG
CLOQUET        FOG       48  46  93 E13G21    29.99R VSB 1/4
MCGREGOR       CLOUDY    52  52 100 E9        29.96R
$$
MNZ071>073-080-081-089-090-097-098-251300-
   Southwest Minnesota

CITY           SKY/WX    TMP DP  RH WIND       PRES   REMARKS
MONTEVIDEO     CLOUDY    64  61  88 S7        29.85R
GRANITE FALLS  CLOUDY    67  61  81 SE10      29.85R
CANBY          LGT RAIN  69  62  79 S16G22    29.83S
REDWOOD FALLS  CLOUDY    65  58  78 SE8       29.83R
OLIVIA         CLOUDY    59  54  82 E7        29.84R
PIPESTONE      LGT RAIN  61  61 100 SE12      29.83R
WINDOM         HVY RAIN  66  63  88 S10       29.87R
WORTHINGTON    CLOUDY    64  63  94 S9        29.87S
JACKSON        CLOUDY    64  61  88 S13G22    29.90R
SLAYTON        HVY RAIN  62  61  97 S6        29.86F
$$
MNZ065>067-074>077-082>085-091>093-251300-
   South Central Minnesota

CITY           SKY/WX    TMP DP  RH WIND       PRES   REMARKS
MANKATO        CLOUDY    66  57  72 SE8       29.88R
NEW ULM        CLOUDY    66  59  77 SE9       29.85S
ST JAMES       CLOUDY    61  55  82 SE9       29.86R
FAIRMONT       CLOUDY    64  55  72 SE13      29.87S
FARIBAULT      CLOUDY    68  61  77 E3        29.89R
OWATONNA       PTSUNNY   66  59  77 E6        29.88S
WASECA         PTSUNNY   64  57  77 S8        29.91R
ALBERT LEA     CLOUDY    64  61  88 S7        29.92R
$$
MNZ078>079-086>088-094>096-251300-
   Southeast Minnesota

CITY           SKY/WX    TMP DP  RH WIND       PRES   REMARKS
ROCHESTER      MOSUNNY   64  60  87 SE12      29.92R
6HR MIN TEMP:  61; 6HR MAX TEMP:  64;

RED WING       CLOUDY    64  59  82 SE6       29.90S
STANTON        PTSUNNY   67  58  71 SE8       29.89R
DODGE CENTER   CLOUDY    64  57  77 SE13      29.90S
WINONA         CLOUDY    63  59  88 CALM      29.93R
AUSTIN         PTSUNNY   64  59  82 SE7       29.90R
PRESTON        PTSUNNY   63  58  84 SE6       29.94R
$$
ABBREVIATIONS USED IN REMARKS
   TC - TEMPERATURES IN CELSIUS
  WCI - WIND CHILL INDEX
   HX - HEAT INDEX
  VSB - VISIBILITY
$$




USA.gov is the U.S. government's official web portal to all federal, state and local government web resources and services.